STARLINK-1820 (46717 NORAD) Tracking and Keplerian Element Data

This shows tracking and keplerian element data for the satellite.

Feedback or suggestion? Click here.




ElementValue
Catalog46717
NameSTARLINK-1820
Epoch Orbit656
Epoch Day331.16668981
Epoch Year2020
RAAN279.1265
Inclination53.0541
Eccentricity8.64E-05
Argument of Perigee86.6089
Mean Anonmoly22.0148
Mean Motion15.62798917
Decay Rate-0.00050667
L11 46717U 20073AZ 20331.16668981 -.00050667 00000-0 -55000-3 0 9990
L22 46717 53.0541 279.1265 0000864 86.6089 22.0148 15.62798917 6561

Live tracking and technical data element details for STARLINK-1820 (NORAD 46717). STARLINK-1820 can be tracked NOW for your location showing map with azimuth and elevation plus other details from your city location.

Track the satellite on the map from your city or location and see movement details for azimuth, elevation, latitude, longitude, range, height, and movement on the map or in text.







IsCatalogInMostPopularTable: catalog: 46717, numindb: 10
Update: records affected: 1



GetName: 46717 STARLINK-1820

Hit Count: updated at: Thu, 26 Nov 2020 18:45:42 GMT